Location: Peterborough
(44.3091°N, 78.3197°W)
Time: 05:53:57
(UTC-04:00)

Vanguard 1 Rocket - Pass Details

Date: 26 March 2023
Orbit: 655 x 4220 km, 34.3° (Epoch: 04 June)

Event Time Altitude Azimuth Distance (km) Brightness Sun altitude
Rises 01:00:38 0° 248° (WSW) 8,297 12.2 -43.4°
Reaches altitude 10° 01:06:59 10° 245° (WSW) 6,990 11.7 -43.5°
Enters shadow 01:13:22 22° 240° (WSW) 5,590 11.1 -43.6°
Maximum altitude 01:27:20 55° 176° (S) 2,964 - -43.5°
Drops below altitude 10° 01:38:14 10° 102° (ESE) 3,966 - -43.4°
Exits shadow 01:39:29 - 100° (E) 4,279 10.8 -43.4°
Sets 01:40:45 0° 98° (E) 4,622 11.0 -43.3°
